Total_Precipitation_Accumulation
1.61 1.60 2.52 3.73 4.39 3.53 3.12 2.91 2.46 2.14 1.64 1.30 1.05 1.07 1.51 1.92 2.16 2.50 2.56 2.59 1.70 1.49 1.76 2.36 3.02 2.87 2.64 2.57 2.62 2.54 2.32 2.03 1.82 1.76 1.78 1.79 1.76 1.79 1.80 1.79 1.77 1.83 1.80 1.71 1.88 2.12 2.15 2.11 2.07
1.25 1.98 3.13 4.26 3.90 3.05 3.11 2.80 2.40 1.97 1.43 1.05 0.85 0.84 0.95 0.93 0.86 1.41 2.61 2.78 1.67 1.34 1.52 1.84 2.72 2.69 2.62 2.60 2.41 2.36 2.10 1.81 1.67 1.64 1.64 1.62 1.69 1.90 2.03 1.97 1.92 1.94 1.74 1.57 1.62 2.01 2.17 2.14 2.02
1.71 2.69 3.73 3.99 3.05 2.82 3.09 2.76 2.24 1.49 1.08 0.94 0.87 0.77 0.85 1.10 1.16 1.75 2.52 2.06 1.51 1.34 1.56 2.22 2.79 2.57 2.51 2.39 2.21 2.20 2.06 1.83 1.72 1.67 1.64 1.68 1.91 2.06 2.05 2.07 2.02 1.96 1.79 1.71 1.82 2.19 2.11 2.05 1.96
2.19 3.21 3.61 3.27 2.68 2.39 2.39 2.32 1.95 1.46 1.10 0.78 0.78 0.88 0.85 1.22 1.41 1.73 1.88 1.50 1.33 1.35 1.55 2.19 2.53 2.27 2.17 2.13 2.07 1.98 2.03 2.03 1.82 1.65 1.69 1.87 2.21 2.23 2.21 2.22 1.98 1.96 1.88 1.92 2.05 2.24 2.22 2.14 2.09
2.63 3.28 3.30 3.05 2.69 2.40 2.00 1.83 1.75 1.62 1.28 0.91 0.86 1.04 1.31 1.82 1.71 1.58 1.56 1.36 1.22 1.17 1.29 1.74 2.21 2.03 1.93 1.94 1.93 1.84 1.94 2.04 1.92 1.68 1.80 2.01 2.24 2.31 2.32 2.20 2.00 1.99 1.99 2.08 2.30 2.32 2.36 2.27 2.12
3.10 3.03 3.13 3.07 2.89 2.56 2.13 1.60 1.47 1.50 1.21 0.99 0.97 1.12 1.75 2.21 2.03 1.87 1.57 1.57 1.37 1.21 1.17 1.35 1.81 1.89 1.75 1.78 1.94 1.85 1.85 1.95 1.90 1.80 1.84 1.88 2.08 2.24 2.27 2.17 2.00 1.93 2.03 2.28 2.61 2.56 2.44 2.25 2.16
3.01 2.88 2.88 2.53 2.64 2.90 2.27 1.41 1.46 1.47 1.35 1.14 0.89 1.12 1.65 1.98 1.83 1.74 1.55 1.55 1.58 1.50 1.37 1.24 1.30 1.48 1.59 1.71 1.87 1.85 1.80 1.78 1.71 1.80 1.86 1.95 2.09 2.14 2.09 2.09 2.02 1.99 2.08 2.21 2.45 2.40 2.30 2.26 2.24
2.40 2.49 2.45 2.44 2.64 2.84 2.05 1.26 1.15 1.34 1.30 0.90 0.95 1.25 1.50 1.49 1.43 1.43 1.49 1.65 1.64 1.58 1.45 1.23 1.12 1.15 1.32 1.37 1.57 1.82 1.86 1.79 1.67 1.74 1.87 1.98 2.06 2.07 2.06 1.99 2.13 2.21 2.18 2.31 2.49 2.39 2.24 2.25 2.16
2.00 2.49 2.78 2.81 2.71 2.42 1.63 1.31 1.09 0.97 0.98 0.89 0.89 1.00 1.09 0.99 1.10 1.26 1.27 1.32 1.44 1.36 1.26 1.17 1.11 1.15 1.27 1.32 1.39 1.71 1.78 1.68 1.51 1.48 1.72 1.77 1.66 1.78 2.03 2.15 2.46 2.43 2.42 2.50 2.61 2.57 2.34 2.09 2.01
2.07 2.52 2.57 2.07 1.67 1.62 1.38 1.23 1.12 1.18 1.24 1.05 1.00 1.02 1.04 1.02 1.07 1.11 1.10 1.11 1.14 1.08 0.97 0.94 0.94 1.02 1.14 1.19 1.56 1.84 1.65 1.58 1.35 1.37 1.38 1.50 1.58 1.82 1.86 2.19 2.63 2.53 2.44 2.40 2.54 2.54 2.14 1.66 1.38
1.73 2.12 1.80 1.53 1.26 1.07 1.13 1.12 0.90 1.09 1.32 1.10 1.03 0.99 1.04 1.12 1.08 1.07 1.04 0.94 0.90 0.83 0.76 0.72 0.67 0.67 0.76 1.00 1.35 1.67 1.82 1.83 1.82 1.62 1.45 1.51 1.32 1.28 1.32 1.47 1.69 1.78 1.83 1.76 1.86 1.97 1.66 1.38 1.31
1.64 1.61 1.44 1.42 1.04 1.01 1.01 0.95 0.91 0.96 1.07 0.97 1.02 0.91 0.91 1.01 1.01 0.97 0.98 0.94 0.82 0.79 0.75 0.67 0.63 0.59 0.61 0.69 0.88 1.13 1.32 1.44 1.51 1.42 1.24 1.32 1.25 1.19 1.21 1.26 1.26 1.27 1.37 1.49 1.49 1.60 1.55 1.35 1.25
1.70 1.67 1.35 1.11 0.99 0.94 0.87 0.84 0.85 0.95 0.91 0.82 0.92 0.99 1.02 1.00 1.00 1.03 1.09 1.07 0.92 0.90 0.90 0.80 0.68 0.63 0.63 0.69 0.75 0.83 1.03 1.16 1.19 1.25 1.18 1.16 1.23 1.26 1.24 1.16 1.17 1.08 1.16 1.31 1.43 1.46 1.48 1.50 1.43
1.50 1.49 1.50 1.30 1.09 1.00 0.99 0.87 0.76 0.95 0.94 0.90 0.98 1.07 1.03 1.05 0.96 0.93 0.98 1.06 1.05 1.00 0.96 0.92 0.80 0.77 0.73 0.72 0.74 0.82 0.92 0.97 0.99 0.98 0.98 1.07 1.19 1.21 1.23 1.22 1.26 1.19 1.22 1.35 1.37 1.30 1.43 1.62 1.54
1.37 1.63 1.65 1.47 1.19 1.06 1.09 1.22 0.93 0.89 0.98 1.01 1.10 1.05 0.96 0.99 0.93 0.90 0.89 0.95 1.00 0.97 0.90 0.90 0.90 0.91 0.89 0.85 0.79 0.80 0.91 0.99 0.98 0.94 0.86 0.88 1.00 1.07 1.15 1.19 1.17 1.20 1.33 1.40 1.46 1.28 1.35 1.42 1.41
1.73 2.11 2.26 1.64 1.34 1.14 1.31 1.52 1.05 1.00 1.06 1.03 1.04 0.98 0.91 0.89 0.86 0.84 0.87 0.85 0.84 0.79 0.78 0.86 0.87 0.89 0.92 0.93 0.94 0.96 0.98 1.07 1.01 0.99 0.90 0.86 0.92 1.03 1.17 1.20 1.15 1.15 1.34 1.49 1.57 1.48 1.50 1.48 1.47
1.99 2.08 1.97 1.62 1.29 1.17 1.22 1.23 0.98 0.99 1.06 0.93 0.91 0.86 0.80 0.75 0.74 0.70 0.74 0.78 0.77 0.72 0.72 0.74 0.80 0.79 0.85 0.91 0.96 1.08 1.12 1.14 1.10 1.08 0.99 0.96 1.03 1.14 1.30 1.40 1.38 1.34 1.39 1.45 1.46 1.56 1.60 1.59 1.60
1.65 1.54 1.43 1.37 1.13 1.08 1.09 0.93 0.81 0.85 0.90 0.83 0.73 0.66 0.64 0.64 0.61 0.60 0.63 0.67 0.69 0.70 0.68 0.67 0.72 0.75 0.77 0.88 1.00 1.20 1.33 1.31 1.31 1.21 1.14 1.17 1.31 1.47 1.60 1.60 1.67 1.69 1.61 1.63 1.61 1.69 1.68 1.61 1.67
1.07 1.18 1.21 1.13 0.86 0.88 0.89 0.76 0.72 0.73 0.76 0.75 0.66 0.56 0.53 0.56 0.54 0.52 0.55 0.60 0.62 0.65 0.66 0.66 0.64 0.71 0.74 0.79 0.94 1.18 1.46 1.57 1.66 1.57 1.38 1.32 1.45 1.74 1.99 1.94 2.01 2.07 2.00 1.97 1.96 2.22 2.18 1.92 1.74
1.05 1.25 1.21 1.10 0.78 0.73 0.75 0.66 0.58 0.57 0.64 0.60 0.58 0.56 0.49 0.50 0.44 0.40 0.44 0.48 0.51 0.53 0.59 0.63 0.62 0.68 0.71 0.76 0.94 1.12 1.29 1.30 1.45 1.57 1.54 1.45 1.44 1.61 1.79 2.07 2.21 2.17 2.30 2.41 2.38 2.75 2.90 2.41 1.98
1.03 1.06 1.03 1.01 0.83 0.71 0.68 0.72 0.56 0.49 0.52 0.49 0.46 0.48 0.43 0.44 0.43 0.41 0.40 0.43 0.43 0.43 0.43 0.47 0.52 0.59 0.69 0.82 1.04 1.27 1.51 1.58 1.60 1.50 1.58 1.59 1.50 1.56 1.70 1.86 2.01 2.05 2.20 2.39 2.51 2.83 3.38 3.14 2.46
0.96 0.70 0.65 0.72 0.92 0.99 0.80 0.99 0.67 0.54 0.56 0.49 0.43 0.40 0.38 0.40 0.43 0.48 0.44 0.46 0.42 0.40 0.39 0.43 0.52 0.65 0.86 1.04 1.25 1.50 1.71 1.77 1.64 1.62 1.64 1.53 1.44 1.43 1.56 1.69 1.81 1.94 2.01 2.19 2.28 2.42 3.01 3.42 3.08
0.65 0.55 0.53 0.62 0.82 0.81 0.62 0.75 0.66 0.53 0.63 0.56 0.48 0.44 0.39 0.39 0.42 0.45 0.44 0.46 0.47 0.46 0.49 0.54 0.72 0.94 1.20 1.41 1.66 1.95 1.92 1.80 1.70 1.65 1.63 1.57 1.55 1.51 1.52 1.69 1.75 1.77 1.86 2.01 2.35 2.62 2.92 3.17 3.20
0.47 0.55 0.62 0.70 0.89 0.87 0.54 0.63 0.69 0.52 0.53 0.54 0.52 0.47 0.40 0.36 0.42 0.52 0.58 0.66 0.71 0.75 0.90 1.09 1.34 1.49 1.59 1.72 1.86 1.98 1.92 1.92 1.86 1.67 1.58 1.56 1.61 1.66 1.68 1.73 1.75 1.72 1.77 1.90 2.17 2.48 2.71 3.04 3.28
0.49 0.82 1.19 1.22 1.19 0.85 0.44 0.63 0.70 0.49 0.40 0.40 0.43 0.38 0.33 0.37 0.47 0.63 0.81 0.94 1.07 1.22 1.38 1.53 1.68 1.82 1.76 1.73 1.79 1.83 1.80 1.77 1.76 1.70 1.63 1.55 1.55 1.60 1.63 1.70 1.82 1.89 1.94 2.06 2.24 2.42 2.37 2.57 3.00
0.52 0.76 1.23 1.37 1.13 0.79 0.58 0.84 0.78 0.55 0.41 0.32 0.26 0.26 0.36 0.52 0.65 0.78 0.87 0.99 1.16 1.34 1.42 1.44 1.53 1.65 1.64 1.60 1.59 1.57 1.61 1.60 1.55 1.48 1.45 1.49 1.57 1.56 1.49 1.53 1.63 1.75 1.93 1.99 2.06 2.12 2.09 2.20 2.46
0.52 0.57 0.62 0.88 0.74 0.74 0.76 0.89 0.79 0.52 0.44 0.35 0.30 0.34 0.49 0.72 0.93 1.09 1.21 1.32 1.36 1.41 1.50 1.43 1.45 1.51 1.52 1.47 1.43 1.45 1.44 1.49 1.48 1.41 1.41 1.39 1.38 1.30 1.22 1.22 1.29 1.36 1.44 1.54 1.69 1.79 1.90 1.98 2.11
0.41 0.55 0.73 1.06 1.19 1.16 1.04 1.02 0.91 0.68 0.58 0.58 0.64 0.73 0.78 0.89 1.16 1.46 1.74 1.91 1.73 1.47 1.41 1.41 1.36 1.37 1.47 1.48 1.42 1.40 1.47 1.48 1.45 1.45 1.38 1.35 1.36 1.27 1.17 1.12 1.09 1.07 1.03 1.08 1.26 1.46 1.59 1.69 1.85
0.42 0.59 0.76 0.99 1.10 1.38 1.56 1.47 1.10 1.08 1.05 1.08 1.16 1.20 1.21 1.31 1.29 1.46 1.70 1.89 1.80 1.48 1.26 1.31 1.38 1.40 1.42 1.42 1.43 1.43 1.41 1.32 1.30 1.32 1.29 1.26 1.25 1.29 1.25 1.15 1.09 1.16 1.14 1.10 1.16 1.20 1.26 1.35 1.50
0.52 0.66 0.86 1.24 1.16 1.13 1.42 1.48 1.15 1.11 1.12 1.18 1.34 1.40 1.39 1.30 1.20 1.20 1.28 1.37 1.43 1.30 1.10 1.08 1.24 1.35 1.35 1.35 1.39 1.36 1.26 1.18 1.17 1.16 1.08 0.96 0.90 0.91 1.01 1.12 1.06 1.03 1.05 1.07 1.13 1.12 1.15 1.21 1.33